Time,TemperatureF,DewpointF,PressureIn,WindDirection,WindDirectionDegrees,WindSpeedMPH,WindSpeedGustMPH,Humidity,HourlyPrecipIn,Conditions,Clouds,dailyrainin,SolarRadiationWatts/m^2,SoftwareType,DateUTC
2013-06-28 00:00:00,67.0,66.0,-100.00,West,270,3.0,-999.0,97,-99.99,,,-99.99,0.000000,,2013-06-28 04:00:00,
2013-06-28 00:43:00,67.0,66.0,-100.00,West,270,3.0,-999.0,97,-99.99,,,-99.99,0.000000,,2013-06-28 04:43:00,
2013-06-28 00:53:00,67.0,66.0,-100.00,West,270,3.0,-999.0,97,-99.99,,,-99.99,0.000000,,2013-06-28 04:53:00,
2013-06-28 01:00:00,67.0,66.0,-100.00,ENE,67,1.0,-999.0,97,-99.99,,,-99.99,0.000000,,2013-06-28 05:00:00,
2013-06-28 01:43:00,67.0,66.0,-100.00,ENE,67,1.0,-999.0,97,-99.99,,,-99.99,0.000000,,2013-06-28 05:43:00,
2013-06-28 01:53:00,67.0,66.0,-100.00,ENE,67,1.0,-999.0,97,-99.99,,,-99.99,0.000000,,2013-06-28 05:53:00,
2013-06-28 02:00:00,66.0,66.0,-100.00,NE,45,2.0,-999.0,98,-99.99,,,-99.99,0.000000,,2013-06-28 06:00:00,
2013-06-28 02:43:00,66.0,66.0,-100.00,NE,45,2.0,-999.0,98,-99.99,,,-99.99,0.000000,,2013-06-28 06:43:00,
2013-06-28 02:52:00,66.0,66.0,-100.00,NE,45,2.0,-999.0,98,-99.99,,,-99.99,0.000000,,2013-06-28 06:52:00,
2013-06-28 03:00:00,66.0,66.0,-100.00,SE,135,1.0,-999.0,99,0.01,,,-99.99,0.000000,,2013-06-28 07:00:00,
2013-06-28 03:43:00,66.0,66.0,-100.00,SE,135,1.0,-999.0,99,0.01,,,-99.99,0.000000,,2013-06-28 07:43:00,
2013-06-28 03:52:00,66.0,66.0,-100.00,SE,135,1.0,-999.0,99,0.01,,,-99.99,0.000000,,2013-06-28 07:52:00,
2013-06-28 04:00:00,66.0,65.0,-100.00,WNW,292,3.0,-999.0,98,0.01,,,-99.99,0.000000,,2013-06-28 08:00:00,
2013-06-28 04:43:00,66.0,65.0,-100.00,WNW,292,3.0,-999.0,98,0.01,,,-99.99,0.000000,,2013-06-28 08:43:00,
2013-06-28 04:52:00,66.0,65.0,-100.00,WNW,292,3.0,-999.0,98,0.01,,,-99.99,0.000000,,2013-06-28 08:52:00,
2013-06-28 05:00:00,66.0,65.0,-100.00,WSW,247,4.0,-999.0,98,0.01,,,-99.99,0.000000,,2013-06-28 09:00:00,
2013-06-28 05:42:00,66.0,65.0,-100.00,WSW,247,4.0,-999.0,98,0.01,,,-99.99,0.000000,,2013-06-28 09:42:00,
2013-06-28 05:52:00,66.0,65.0,-100.00,WSW,247,4.0,-999.0,98,0.01,,,-99.99,0.000000,,2013-06-28 09:52:00,
2013-06-28 06:00:00,66.0,65.0,-100.00,West,270,4.0,-999.0,97,-99.99,,,-99.99,0.000000,,2013-06-28 10:00:00,
2013-06-28 06:42:00,66.0,65.0,-100.00,West,270,4.0,-999.0,97,-99.99,,,-99.99,0.000000,,2013-06-28 10:42:00,
2013-06-28 06:52:00,66.0,65.0,-100.00,West,270,4.0,-999.0,97,-99.99,,,-99.99,0.000000,,2013-06-28 10:52:00,
2013-06-28 07:00:00,65.0,65.0,-100.00,WSW,247,5.0,-999.0,98,-99.99,,,-99.99,19.719999,,2013-06-28 11:00:00,
2013-06-28 07:43:00,65.0,65.0,-100.00,WSW,247,5.0,-999.0,98,-99.99,,,-99.99,19.719999,,2013-06-28 11:43:00,
2013-06-28 07:53:00,65.0,65.0,-100.00,WSW,247,5.0,-999.0,98,-99.99,,,-99.99,19.719999,,2013-06-28 11:53:00,
2013-06-28 08:00:00,66.0,65.0,-100.00,WSW,247,7.0,-999.0,96,-99.99,,,-99.99,109.040001,,2013-06-28 12:00:00,
2013-06-28 08:43:00,66.0,65.0,-100.00,WSW,247,7.0,-999.0,96,-99.99,,,-99.99,109.040001,,2013-06-28 12:43:00,
2013-06-28 08:52:00,66.0,65.0,-100.00,WSW,247,7.0,-999.0,96,-99.99,,,-99.99,109.040001,,2013-06-28 12:52:00,
2013-06-28 09:00:00,68.0,66.0,-100.00,West,270,8.0,-999.0,91,-99.99,,,-99.99,317.839996,,2013-06-28 13:00:00,
2013-06-28 09:43:00,68.0,66.0,-100.00,West,270,8.0,-999.0,91,-99.99,,,-99.99,317.839996,,2013-06-28 13:43:00,
2013-06-28 09:53:00,68.0,66.0,-100.00,West,270,8.0,-999.0,91,-99.99,,,-99.99,317.839996,,2013-06-28 13:53:00,
2013-06-28 10:00:00,70.0,66.0,-100.00,West,270,8.0,-999.0,85,-99.99,,,-99.99,436.160004,,2013-06-28 14:00:00,
2013-06-28 10:44:00,70.0,66.0,-100.00,West,270,8.0,-999.0,85,-99.99,,,-99.99,436.160004,,2013-06-28 14:44:00,
2013-06-28 10:53:00,70.0,66.0,-100.00,West,270,8.0,-999.0,85,-99.99,,,-99.99,436.160004,,2013-06-28 14:53:00,
2013-06-28 11:00:00,73.0,65.0,-100.00,WNW,292,7.0,-999.0,76,-99.99,,,-99.99,590.440002,,2013-06-28 15:00:00,
2013-06-28 11:43:00,73.0,65.0,-100.00,WNW,292,7.0,-999.0,76,-99.99,,,-99.99,590.440002,,2013-06-28 15:43:00,
2013-06-28 11:52:00,73.0,65.0,-100.00,WNW,292,7.0,-999.0,76,-99.99,,,-99.99,590.440002,,2013-06-28 15:52:00,
2013-06-28 12:00:00,75.0,65.0,-100.00,NW,315,8.0,-999.0,70,-99.99,,,-99.99,699.479980,,2013-06-28 16:00:00,
2013-06-28 12:44:00,75.0,65.0,-100.00,NW,315,8.0,-999.0,70,-99.99,,,-99.99,699.479980,,2013-06-28 16:44:00,
2013-06-28 12:53:00,75.0,65.0,-100.00,NW,315,8.0,-999.0,70,-99.99,,,-99.99,699.479980,,2013-06-28 16:53:00,
2013-06-28 13:00:00,74.0,65.0,-100.00,South,180,7.0,-999.0,75,0.01,,,-99.99,299.279999,,2013-06-28 17:00:00,
2013-06-28 13:44:00,74.0,65.0,-100.00,South,180,7.0,-999.0,75,0.01,,,-99.99,299.279999,,2013-06-28 17:44:00,
2013-06-28 13:52:00,74.0,65.0,-100.00,South,180,7.0,-999.0,75,0.01,,,-99.99,299.279999,,2013-06-28 17:52:00,
2013-06-28 14:00:00,74.0,66.0,-100.00,ESE,112,5.0,-999.0,78,-99.99,,,-99.99,438.480011,,2013-06-28 18:00:00,
2013-06-28 14:52:00,74.0,66.0,-100.00,ESE,112,5.0,-999.0,78,-99.99,,,-99.99,438.480011,,2013-06-28 18:52:00,
2013-06-28 15:00:00,69.0,64.0,-100.00,East,90,6.0,-999.0,84,0.40,,,-99.99,92.800003,,2013-06-28 19:00:00,
2013-06-28 15:43:00,69.0,64.0,-100.00,East,90,6.0,-999.0,84,0.40,,,-99.99,92.800003,,2013-06-28 19:43:00,
2013-06-28 15:53:00,69.0,64.0,-100.00,East,90,6.0,-999.0,84,0.40,,,-99.99,92.800003,,2013-06-28 19:53:00,
2013-06-28 16:00:00,65.0,63.0,-100.00,WSW,247,3.0,-999.0,91,0.10,,,-99.99,71.919998,,2013-06-28 20:00:00,
2013-06-28 16:43:00,65.0,63.0,-100.00,WSW,247,3.0,-999.0,91,0.10,,,-99.99,71.919998,,2013-06-28 20:43:00,
2013-06-28 16:52:00,65.0,63.0,-100.00,WSW,247,3.0,-999.0,91,0.10,,,-99.99,71.919998,,2013-06-28 20:52:00,
2013-06-28 17:00:00,67.0,64.0,-100.00,ESE,112,1.0,-999.0,88,-99.99,,,-99.99,287.679993,,2013-06-28 21:00:00,
2013-06-28 17:43:00,67.0,64.0,-100.00,ESE,112,1.0,-999.0,88,-99.99,,,-99.99,287.679993,,2013-06-28 21:43:00,
2013-06-28 17:53:00,67.0,64.0,-100.00,ESE,112,1.0,-999.0,88,-99.99,,,-99.99,287.679993,,2013-06-28 21:53:00,
2013-06-28 18:00:00,71.0,65.0,-100.00,ENE,67,5.0,-999.0,81,-99.99,,,-99.99,291.160004,,2013-06-28 22:00:00,
2013-06-28 18:43:00,71.0,65.0,-100.00,ENE,67,5.0,-999.0,81,-99.99,,,-99.99,291.160004,,2013-06-28 22:43:00,
2013-06-28 18:53:00,71.0,65.0,-100.00,ENE,67,5.0,-999.0,81,-99.99,,,-99.99,291.160004,,2013-06-28 22:53:00,
2013-06-28 19:00:00,70.0,65.0,-100.00,NE,45,8.0,-999.0,84,-99.99,,,-99.99,121.800003,,2013-06-28 23:00:00,
2013-06-28 19:34:00,70.0,65.0,-100.00,NE,45,8.0,-999.0,84,-99.99,,,-99.99,121.800003,,2013-06-28 23:34:00,
2013-06-28 19:43:00,70.0,65.0,-100.00,NE,45,8.0,-999.0,84,-99.99,,,-99.99,121.800003,,2013-06-28 23:43:00,
2013-06-28 19:53:00,70.0,65.0,-100.00,NE,45,8.0,-999.0,84,-99.99,,,-99.99,121.800003,,2013-06-28 23:53:00,
2013-06-28 21:00:00,66.0,64.0,-100.00,NNE,22,6.0,-999.0,92,0.02,,,-99.99,8.120000,,2013-06-29 01:00:00,
2013-06-28 21:32:00,66.0,64.0,-100.00,NNE,22,6.0,-999.0,92,0.02,,,-99.99,8.120000,,2013-06-29 01:32:00,
2013-06-28 21:42:00,66.0,64.0,-100.00,NNE,22,6.0,-999.0,92,0.02,,,-99.99,8.120000,,2013-06-29 01:42:00,
2013-06-28 21:52:00,66.0,64.0,-100.00,NNE,22,6.0,-999.0,92,0.02,,,-99.99,8.120000,,2013-06-29 01:52:00,
2013-06-28 22:00:00,65.0,63.0,-100.00,NE,45,7.0,-999.0,92,-99.99,,,-99.99,1.160000,,2013-06-29 02:00:00,
2013-06-28 22:31:00,65.0,63.0,-100.00,NE,45,7.0,-999.0,92,-99.99,,,-99.99,1.160000,,2013-06-29 02:31:00,
2013-06-28 22:41:00,65.0,63.0,-100.00,NE,45,7.0,-999.0,92,-99.99,,,-99.99,1.160000,,2013-06-29 02:41:00,
2013-06-28 22:51:00,65.0,63.0,-100.00,NE,45,7.0,-999.0,92,-99.99,,,-99.99,1.160000,,2013-06-29 02:51:00,
2013-06-28 23:00:00,64.0,62.0,-100.00,NNE,22,5.0,-999.0,93,-99.99,,,-99.99,0.000000,,2013-06-29 03:00:00,
2013-06-28 23:32:00,64.0,62.0,-100.00,NNE,22,5.0,-999.0,93,-99.99,,,-99.99,0.000000,,2013-06-29 03:32:00,
2013-06-28 23:41:00,64.0,62.0,-100.00,NNE,22,5.0,-999.0,93,-99.99,,,-99.99,0.000000,,2013-06-29 03:41:00,
2013-06-28 23:51:00,64.0,62.0,-100.00,NNE,22,5.0,-999.0,93,-99.99,,,-99.99,0.000000,,2013-06-29 03:51:00,